Location: Caltech
(34.1382°N, 118.1253°W)
Time: 13:20:23

ERBS - Visible Passes

Search period start: 23 October 2016 00:00
Search period end: 02 November 2016 00:00
Orbit: 431 x 450 km, 57.0° (Epoch: 22 October)

Date Brightness Start Highest point End Pass type
(mag) Time Alt. Az. Time Alt. Az. Time Alt. Az.
23 Oct 2.6 05:22:08 67° ESE 05:22:08 67° ESE 05:25:23 10° NE visible
24 Oct 5.3 04:44:08 15° ENE 04:44:08 15° ENE 04:44:54 10° NE visible
24 Oct 4.1 06:17:36 14° WNW 06:18:35 16° NW 06:20:48 10° N visible
25 Oct 4.2 05:39:22 19° N 05:39:22 19° N 05:40:59 10° NNE visible
